This demonstration page uses our WeatherBlox Daily Observations layout. Learn more.

Left ArrowRight Arrow

39.01783, -85.05884

Hourly Observations for October 4, 2018

Temp ( °F °C ) Dew Point ( °F °C ) Humidity (%) Winds ( mph kmh ) Pressure ( in mb ) Visibility ( mi km ) Precip ( " mm )
12:52 am 00:52 Clear 73 22.8 68 20 84 84 S 9 15 29.95 1014 10 16 N/A
1:52 am 01:52 Clear 72 22.2 69 20.6 91 91 SSW 8 13 29.96 1015 10 16 N/A
2:52 am 02:52 Mostly Cloudy 72 22.2 69 20.6 91 91 SSW 8 13 29.98 1015 10 16 N/A
3:52 am 03:52 Mostly Cloudy 72 22.2 69 20.6 91 91 SSW 6 9 29.96 1015 10 16 N/A
4:52 am 04:52 Cloudy 73 22.8 69 20.6 87 87 SSW 10 17 29.96 1015 10 16 N/A
5:52 am 05:52 Cloudy 73 22.8 69 20.6 87 87 SSW 9 15 29.96 1015 10 16 N/A
6:52 am 06:52 Partly Cloudy 73 22.8 69 20.6 87 87 SSW 10 17 29.98 1015 10 16 N/A
7:52 am 07:52 Mostly Cloudy 73 22.8 69 20.6 87 87 SW 7 11 29.99 1016 10 16 N/A
8:52 am 08:52 Mostly Cloudy 73 22.8 69 20.6 87 87 SW 8 13 30.01 1016 10 16 N/A
9:52 am 09:52 Mostly Cloudy 75 23.9 70 21.1 84 84 SW 10 17 30.01 1016 10 16 N/A
10:52 am 10:52 Mostly Cloudy 77 25 71 21.7 82 82 WSW 8 13 30.02 1017 10 16 N/A
11:34 am 11:34 Mostly Cloudy 80 26.7 72 22.2 76 76 WSW 8 13 30.03 1017 10 16 N/A
11:52 am 11:52 Cloudy 80 26.7 72 22.2 76 76 W 10 17 30.02 1017 10 16 N/A
12:52 pm 12:52 Cloudy 79 26.1 71 21.7 77 77 W 9 15 30.02 1017 10 16 N/A
1:26 pm 13:26 Cloudy 79 26.1 72 22.2 79 79 W 9 15 30.03 1017 10 16 N/A
1:52 pm 13:52 Cloudy 79 26.1 72 22.2 79 79 WSW 7 11 30.01 1016 10 16 N/A
2:21 pm 14:21 Cloudy with Light Rain 78 25.6 72 22.2 82 82 W 6 9 30.00 1016 10 16 N/A
2:52 pm 14:52 Cloudy 79 26.1 72 22.2 79 79 W 8 13 30.02 1017 10 16 N/A
3:08 pm 15:08 Cloudy 79 26.1 72 22.2 79 79 WNW 9 15 30.03 1017 10 16 N/A
3:52 pm 15:52 Cloudy 79 26.1 72 22.2 79 79 W 7 11 30.02 1017 10 16 N/A
4:52 pm 16:52 Cloudy 79 26.1 72 22.2 79 79 W 9 15 30.01 1016 10 16 N/A
5:52 pm 17:52 Mostly Cloudy 78 25.6 72 22.2 82 82 WNW 9 15 30.01 1016 10 16 N/A
6:07 pm 18:07 Cloudy 77 25 70 21.1 79 79 NNW 13 20 30.03 1017 10 16 N/A
6:52 pm 18:52 Cloudy 76 24.4 69 20.6 79 79 N 10 17 30.03 1017 10 16 N/A
7:02 pm 19:02 Cloudy 75 23.9 69 20.6 82 82 N 10 17 30.03 1017 10 16 N/A
7:52 pm 19:52 Mostly Cloudy 73 22.8 67 19.4 81 81 N 12 19 30.04 1017 10 16 N/A
8:25 pm 20:25 Cloudy 73 22.8 67 19.4 81 81 N 7 11 30.06 1018 10 16 N/A
8:52 pm 20:52 Cloudy 73 22.8 65 18.3 76 76 NNE 12 19 30.06 1018 10 16 N/A
9:13 pm 21:13 Cloudy 73 22.8 64 17.8 74 74 NNE 10 17 30.06 1018 10 16 N/A
9:52 pm 21:52 Cloudy 73 22.8 64 17.8 74 74 NNE 8 13 30.07 1018 10 16 N/A
10:52 pm 22:52 Cloudy 72 22.2 64 17.8 76 76 NE 9 15 30.08 1019 10 16 N/A
11:14 pm 23:14 Cloudy 72 22.2 64 17.8 76 76 ENE 8 13 30.09 1019 10 16 N/A
11:52 pm 23:52 Cloudy 70 21.1 65 18.3 84 84 E 16 26 30.08 1019 10 16 N/A

Powered by AerisWeather